Location: Acton
(51.4942°N, 0.2232°W)
Time: 10:12:12
(UTC+00:00)

Okean 1-7 Rocket - Pass Details

Date: 19 January 2021
Orbit: 615 x 650 km, 82.5° (Epoch: 26 February)

Event Time Altitude Azimuth Distance (km) Brightness Sun altitude
Rises 20:31:53 0° 250° (WSW) 2,957 7.7 -37.2°
Reaches altitude 10° 20:35:49 10° 284° (WNW) 2,059 7.0 -37.8°
Maximum altitude 20:37:18 11° 303° (WNW) 1,971 6.8 -38.0°
Drops below altitude 10° 20:38:46 10° 322° (NW) 2,066 6.7 -38.3°
Enters shadow 20:39:30 - 330° (NNW) 2,172 6.8 -38.4°
